Location: Kalberh�ni
(46.4610°N, 7.2453°E)
Time: 21:45:26
(UTC+00:00)

X-37B - Pass Details

Date: 21 September 2021
Orbit: 322 x 349 km, 45.0° (Epoch: 28 October)

Event Time Altitude Azimuth Distance (km) Brightness Sun altitude
Rises 11:59:01 0° 246° (WSW) 2,086 4.7 43.8°
Enters shadow 12:34:49 -62° 120° (ESE) 11,654 7.7 41.9°
Exits shadow 13:10:21 -46° 323° (NW) 9,636 7.2 38.9°
Maximum altitude 04:25:54 11° 147° (SSE) 1,176 3.3 -9.5°
